EW7034 Weather Reports


Display with metric or nautical units.
time (UTC)temp
F
wind
direction
speed
MPH
gust
MPH
rain 1hr
in
rain 24hr
in
rain mn
in
humidity
%
barometer
mb
20180718064951 58 319 0.0 0.0 0.00 0.00 0.00 84 1015.9
20180718063448 58 319 0.0 0.0 0.00 0.00 0.00 87 1015.8
20180718061945 57 319 0.0 0.0 0.00 0.00 0.00 89 1015.6
20180718060439 57 319 0.0 0.0 0.00 0.00 0.00 90 1015.5
20180718054940 56 319 0.0 0.0 0.00 0.00 0.00 89 1015.3
20180718053438 56 319 0.0 0.0 0.00 0.00 0.00 89 1015.2
20180718051932 56 319 0.0 0.0 0.00 0.00 0.00 89 1015.1
20180718050433 56 319 0.0 0.0 0.00 0.00 0.00 88 1015.1
20180718044931 56 319 0.0 0.0 0.00 0.00 0.00 88 1014.9
20180718043429 56 319 0.0 0.0 0.00 0.00 0.00 89 1014.9
20180718041927 56 319 0.0 0.0 0.00 0.00 0.00 89 1014.8
20180718040428 56 319 0.0 0.0 0.00 0.00 0.00 90 1014.8
20180718034927 56 319 0.0 0.0 0.00 0.00 0.00 91 1014.7
20180718033424 55 319 0.0 0.0 0.00 0.00 0.00 91 1014.7
20180718031924 55 319 0.0 0.0 0.00 0.00 0.00 92 1014.6
20180718030425 55 319 0.0 0.0 0.00 0.00 0.00 91 1014.6
20180718024924 55 319 0.0 0.0 0.00 0.00 0.00 91 1014.6
20180718023422 55 319 0.0 0.0 0.00 0.00 0.00 92 1014.6
20180718021922 54 319 0.0 0.0 0.00 0.00 0.00 92 1014.6
20180718020423 53 319 0.0 0.0 0.00 0.00 0.00 90 1014.6
20180718014919 53 319 0.0 0.0 0.00 0.00 0.00 90 1014.6
20180718013418 54 319 0.0 0.0 0.00 0.00 0.00 92 1014.5
20180718011916 55 319 0.0 0.0 0.00 0.00 0.00 89 1014.5
20180718010414 55 319 0.0 0.0 0.00 0.00 0.00 89 1014.5
20180718004913 55 319 0.0 0.0 0.00 0.00 0.00 89 1014.5
20180718003410 55 319 0.0 0.0 0.00 0.00 0.00 88 1014.5
20180718001909 56 319 0.0 0.0 0.00 0.00 0.00 87 1014.5
20180718000409 56 319 0.0 0.0 0.00 0.00 0.00 87 1014.4
20180717234911 56 319 0.0 0.0 0.00 0.00 0.00 87 1014.4
20180717233406 56 319 0.0 0.0 0.00 0.00 0.00 87 1014.5
20180717231906 57 319 0.0 0.0 0.00 0.00 0.00 86 1014.5
20180717230403 57 319 0.0 0.0 0.00 0.00 0.00 86 1014.5
20180717224901 57 319 0.0 0.0 0.00 0.00 0.00 85 1014.4
20180717223400 58 319 0.0 0.0 0.00 0.00 0.00 84 1014.4
20180717221902 58 319 0.0 0.0 0.00 0.00 0.00 84 1014.3
20180717220359 59 319 0.0 0.0 0.00 0.00 0.00 83 1014.4
20180717214902 59 319 0.0 0.0 0.00 0.00 0.00 82 1014.4
20180717213359 59 319 0.0 0.0 0.00 0.00 0.00 81 1014.5
20180717211857 60 319 0.0 0.0 0.00 0.00 0.00 80 1014.5
20180717210359 60 319 0.0 0.0 0.00 0.00 0.00 79 1014.5
20180717204858 60 319 0.0 3.0 0.00 0.00 0.00 78 1014.3
20180717203359 61 321 0.0 1.0 0.00 0.00 0.00 77 1014.1
20180717201856 61 321 0.0 3.0 0.00 0.00 0.00 75 1014.0
20180717200357 61 308 0.0 3.0 0.00 0.00 0.00 74 1014.0
20180717194854 62 300 0.0 4.0 0.00 0.00 0.00 73 1014.0
20180717193354 62 335 0.0 3.0 0.00 0.00 0.00 73 1014.0
20180717191853 62 313 1.0 5.0 0.00 0.00 0.00 72 1013.9
20180717190355 63 314 0.0 6.0 0.00 0.00 0.00 73 1013.7
20180717184851 63 316 0.0 4.0 0.00 0.00 0.00 71 1013.7
20180717183352 64 345 0.0 6.0 0.00 0.00 0.00 68 1013.5
20180717181852 65 313 0.0 3.0 0.00 0.00 0.00 63 1013.5
20180717180350 65 315 0.0 3.0 0.00 0.00 0.00 65 1013.4
20180717174852 65 347 0.0 3.0 0.00 0.00 0.00 64 1013.4
20180717173349 65 360 0.0 1.0 0.00 0.00 0.00 63 1013.4
20180717171851 65 360 0.0 4.0 0.00 0.00 0.00 63 1013.5
20180717170351 65 319 0.0 1.0 0.00 0.00 0.00 66 1013.5
20180717164850 64 322 0.0 5.0 0.00 0.00 0.00 66 1013.5
20180717163350 65 302 0.0 3.0 0.00 0.00 0.00 65 1013.6
20180717161844 65 306 0.0 4.0 0.00 0.00 0.00 66 1013.6
20180717160346 64 332 0.0 4.0 0.00 0.00 0.00 67 1013.7
20180717154842 63 286 0.0 5.0 0.00 0.00 0.00 68 1013.9
20180717153341 64 291 2.0 9.0 0.00 0.00 0.00 60 1013.9
20180717151842 64 342 0.0 2.0 0.00 0.00 0.00 62 1013.9
20180717150341 64 317 0.0 3.0 0.00 0.00 0.00 55 1013.9
20180717144841 65 313 0.0 5.0 0.00 0.00 0.00 55 1013.9
20180717143342 65 283 0.0 3.0 0.00 0.00 0.00 54 1014.0
20180717141838 64 281 0.0 2.0 0.00 0.00 0.00 57 1014.1
20180717140341 63 272 1.0 6.0 0.00 0.00 0.00 56 1014.1
20180717134837 63 309 0.0 2.0 0.00 0.00 0.00 58 1014.2
20180717133340 62 311 0.0 2.0 0.00 0.00 0.00 61 1014.2
20180717131836 62 312 0.0 3.0 0.00 0.00 0.00 61 1014.3
20180717130335 62 311 1.0 5.0 0.00 0.00 0.00 61 1014.3
20180717124837 62 317 0.0 5.0 0.00 0.00 0.00 62 1014.3
20180717123335 63 311 0.0 1.0 0.00 0.00 0.00 61 1014.3
20180717121836 62 310 0.0 1.0 0.00 0.00 0.00 61 1014.5
20180717120433 61 284 0.0 1.0 0.00 0.00 0.00 63 1014.5
20180717114832 61 278 0.0 4.0 0.00 0.00 0.00 64 1014.5
20180717113331 61 317 2.0 5.0 0.00 0.00 0.00 61 1014.6
20180717111830 62 285 0.0 3.0 0.00 0.00 0.00 60 1014.4
20180717110330 62 309 0.0 5.0 0.00 0.00 0.00 61 1014.4
20180717104830 62 294 0.0 2.0 0.00 0.00 0.00 59 1014.4
20180717103329 62 292 0.0 1.0 0.00 0.00 0.00 60 1014.5
20180717101828 63 298 0.0 1.0 0.00 0.00 0.00 56 1014.5
20180717100330 64 294 0.0 3.0 0.00 0.00 0.00 54 1014.4
20180717094826 63 292 0.0 1.0 0.00 0.00 0.00 62 1014.5
20180717093326 62 292 0.0 1.0 0.00 0.00 0.00 59 1014.5
20180717091823 61 292 0.0 2.0 0.00 0.00 0.00 62 1014.6
20180717090320 61 292 0.0 1.0 0.00 0.00 0.00 63 1014.6
20180717084814 60 292 0.0 0.0 0.00 0.00 0.00 66 1014.5
20180717083315 60 292 0.0 1.0 0.00 0.00 0.00 65 1014.4
20180717081815 60 292 0.0 1.0 0.00 0.00 0.00 67 1014.5
20180717080311 60 292 0.0 1.0 0.00 0.00 0.00 66 1014.5
20180717074811 59 292 0.0 2.0 0.00 0.00 0.00 70 1014.4
20180717073308 59 293 0.0 3.0 0.00 0.00 0.00 72 1014.4
20180717071803 57 263 0.0 1.0 0.00 0.00 0.00 76 1014.5
20180717070300 57 263 0.0 2.0 0.00 0.00 0.00 74 1014.4